Total_Precipitation_Accumulation
0.00 0.00 0.00 0.00 0.00 0.00 0.00 0.00 0.00 0.00 0.00 0.00 0.00 0.00 0.00 0.00 0.00 0.00 0.00 0.00 0.00 0.00 0.00 0.00 0.00 0.00 0.00 0.00 0.00 0.00 0.00 0.06 0.08 0.16 0.39 0.08 0.05 0.11 0.03 0.06 0.05 0.14 0.10 0.13 0.07 0.10 0.07 0.07 0.05 0.10 0.00 0.02 0.01 0.00 0.00 0.00 0.00 0.00 0.00 0.00 0.00 0.00 0.00 0.00 0.00 0.00 0.00 0.00 0.00 0.00 0.01 0.01 0.02 0.02 0.02 0.04 0.04 0.03 0.02 0.03 0.04 0.09 0.06 0.05 0.07 0.11 0.05 0.04 0.04 0.04 0.07 0.03 0.03 0.03 0.03 0.02 0.03
0.00 0.00 0.00 0.00 0.00 0.00 0.00 0.00 0.00 0.00 0.00 0.00 0.00 0.00 0.00 0.00 0.00 0.00 0.00 0.00 0.00 0.00 0.00 0.00 0.00 0.00 0.00 0.00 0.00 0.00 0.00 0.01 0.00 0.03 0.13 0.13 0.09 0.07 0.10 0.05 0.04 0.17 0.16 0.14 0.11 0.09 0.09 0.14 0.05 0.04 0.06 0.02 0.02 0.00 0.00 0.00 0.00 0.00 0.01 0.00 0.00 0.00 0.01 0.00 0.00 0.00 0.00 0.00 0.01 0.01 0.01 0.03 0.02 0.03 0.03 0.04 0.01 0.01 0.01 0.04 0.07 0.14 0.05 0.09 0.09 0.09 0.04 0.03 0.04 0.03 0.03 0.02 0.01 0.03 0.03 0.01 0.02
0.00 0.00 0.00 0.00 0.00 0.00 0.00 0.00 0.00 0.00 0.00 0.00 0.00 0.00 0.00 0.00 0.00 0.00 0.00 0.00 0.00 0.00 0.00 0.00 0.00 0.00 0.00 0.00 0.00 0.08 0.25 0.04 0.01 0.05 0.15 0.19 0.11 0.39 0.16 0.14 0.09 0.13 0.17 0.23 0.11 0.07 0.12 0.13 0.06 0.05 0.06 0.05 0.02 0.01 0.00 0.00 0.00 0.01 0.01 0.00 0.00 0.00 0.00 0.00 0.00 0.00 0.00 0.01 0.01 0.02 0.02 0.03 0.04 0.05 0.05 0.02 0.03 0.01 0.04 0.03 0.07 0.10 0.05 0.06 0.06 0.03 0.03 0.03 0.03 0.03 0.01 0.02 0.01 0.00 0.01 0.01 0.01
0.00 0.00 0.00 0.00 0.00 0.00 0.00 0.00 0.00 0.00 0.00 0.00 0.00 0.00 0.00 0.00 0.00 0.00 0.00 0.00 0.00 0.00 0.00 0.00 0.01 0.00 0.00 0.00 0.03 0.00 0.04 0.04 0.04 0.04 0.18 0.14 0.17 0.16 0.18 0.12 0.11 0.20 0.40 0.20 0.18 0.11 0.12 0.12 0.08 0.04 0.10 0.07 0.02 0.02 0.01 0.01 0.01 0.00 0.01 0.00 0.00 0.00 0.00 0.01 0.01 0.00 0.01 0.01 0.02 0.03 0.05 0.08 0.08 0.07 0.05 0.02 0.02 0.08 0.03 0.03 0.16 0.14 0.10 0.05 0.04 0.04 0.02 0.02 0.01 0.02 0.01 0.00 0.00 0.01 0.01 0.02 0.03
0.00 0.00 0.00 0.00 0.00 0.00 0.00 0.00 0.00 0.00 0.00 0.00 0.00 0.00 0.00 0.00 0.00 0.00 0.00 0.00 0.00 0.00 0.00 0.00 0.00 0.00 0.00 0.02 0.00 0.07 0.04 0.04 0.07 0.05 0.04 0.09 0.04 0.17 0.14 0.14 0.18 0.43 0.29 0.37 0.17 0.16 0.13 0.09 0.08 0.08 0.12 0.11 0.03 0.04 0.03 0.02 0.01 0.02 0.01 0.00 0.00 0.00 0.00 0.00 0.00 0.00 0.01 0.02 0.04 0.05 0.05 0.06 0.07 0.06 0.10 0.05 0.01 0.04 0.08 0.01 0.05 0.06 0.05 0.03 0.01 0.01 0.01 0.02 0.01 0.01 0.01 0.01 0.01 0.02 0.04 0.05 0.05
0.00 0.00 0.00 0.00 0.00 0.00 0.00 0.00 0.00 0.00 0.00 0.00 0.00 0.00 0.00 0.00 0.00 0.00 0.00 0.00 0.00 0.00 0.00 0.00 0.01 0.01 0.02 0.06 0.08 0.08 0.10 0.17 0.03 0.03 0.06 0.16 0.08 0.13 0.18 0.39 0.65 0.35 0.28 0.20 0.19 0.17 0.18 0.09 0.05 0.13 0.19 0.14 0.13 0.08 0.07 0.06 0.05 0.05 0.02 0.00 0.01 0.01 0.01 0.01 0.00 0.01 0.03 0.04 0.04 0.06 0.04 0.04 0.09 0.11 0.13 0.11 0.04 0.03 0.02 0.01 0.02 0.02 0.04 0.06 0.04 0.02 0.02 0.01 0.01 0.01 0.01 0.01 0.06 0.04 0.02 0.03 0.02
0.00 0.00 0.00 0.00 0.00 0.00 0.00 0.00 0.00 0.00 0.00 0.00 0.00 0.00 0.00 0.00 0.00 0.00 0.00 0.00 0.00 0.00 0.00 0.00 0.00 0.00 0.04 0.03 0.03 0.09 0.04 0.04 0.04 0.07 0.06 0.11 0.12 0.15 0.19 0.58 0.62 0.35 0.24 0.19 0.16 0.19 0.15 0.05 0.03 0.05 0.14 0.18 0.30 0.23 0.17 0.08 0.07 0.06 0.10 0.08 0.04 0.02 0.01 0.01 0.01 0.03 0.04 0.03 0.05 0.06 0.05 0.11 0.10 0.10 0.07 0.12 0.07 0.06 0.03 0.01 0.02 0.03 0.06 0.06 0.06 0.05 0.02 0.03 0.01 0.02 0.02 0.03 0.05 0.02 0.02 0.02 0.01
0.00 0.00 0.00 0.00 0.00 0.00 0.00 0.00 0.00 0.00 0.00 0.00 0.00 0.00 0.00 0.00 0.00 0.00 0.00 0.00 0.00 0.00 0.00 0.00 0.00 0.00 0.85 0.02 0.25 0.05 0.06 0.06 0.05 0.04 0.03 0.08 0.13 0.38 0.58 0.68 0.39 0.36 0.27 0.21 0.23 0.16 0.25 0.03 0.04 0.03 0.07 0.08 0.11 0.11 0.21 0.22 0.19 0.12 0.10 0.09 0.11 0.11 0.04 0.02 0.02 0.06 0.03 0.04 0.09 0.05 0.05 0.07 0.18 0.14 0.13 0.15 0.21 0.06 0.15 0.07 0.04 0.03 0.03 0.03 0.02 0.03 0.03 0.02 0.02 0.01 0.04 0.04 0.00 0.00 0.01 0.00 0.00
0.00 0.00 0.00 0.00 0.00 0.00 0.00 0.00 0.00 0.00 0.00 0.00 0.00 0.00 0.00 0.00 0.00 0.00 0.00 0.00 0.00 0.00 0.00 0.00 0.00 0.11 0.14 0.11 0.16 0.13 0.08 0.14 0.05 0.04 0.07 0.12 0.27 0.50 0.70 0.51 0.41 0.30 0.21 0.35 0.28 0.25 0.11 0.06 0.03 0.02 0.03 0.03 0.05 0.14 0.14 0.09 0.16 0.10 0.09 0.09 0.08 0.05 0.05 0.09 0.06 0.05 0.05 0.10 0.05 0.07 0.04 0.04 0.09 0.08 0.11 0.18 0.11 0.08 0.10 0.11 0.05 0.06 0.06 0.04 0.05 0.02 0.02 0.02 0.08 0.03 0.02 0.03 0.02 0.00 0.00 0.00 0.00
0.00 0.00 0.00 0.00 0.00 0.00 0.00 0.00 0.00 0.00 0.00 0.00 0.00 0.00 0.00 0.00 0.00 0.00 0.00 0.00 0.00 0.00 0.00 0.00 0.00 0.06 0.08 0.42 0.17 0.21 0.36 0.13 0.13 0.11 0.28 0.39 0.28 0.47 1.06 1.06 0.67 0.45 0.42 0.32 0.30 0.22 0.13 0.33 0.01 0.02 0.02 0.03 0.05 0.09 0.07 0.07 0.04 0.08 0.06 0.07 0.08 0.01 0.03 0.06 0.08 0.06 0.05 0.09 0.07 0.04 0.04 0.01 0.03 0.05 0.05 0.11 0.08 0.06 0.05 0.07 0.04 0.07 0.09 0.06 0.04 0.11 0.02 0.04 0.04 0.03 0.05 0.02 0.02 0.01 0.00 0.00 0.00
0.00 0.00 0.00 0.00 0.00 0.00 0.00 0.00 0.00 0.00 0.00 0.00 0.00 0.00 0.00 0.00 0.00 0.00 0.00 0.00 0.00 0.00 0.00 0.00 0.01 0.04 0.04 0.24 0.44 0.28 0.44 0.22 0.16 0.24 0.28 0.25 0.57 0.97 0.94 1.05 0.61 0.70 0.42 0.38 0.40 0.38 0.25 0.23 0.24 0.03 0.02 0.02 0.04 0.03 0.03 0.02 0.03 0.02 0.01 0.01 0.02 0.03 0.02 0.02 0.06 0.05 0.06 0.11 0.15 0.08 0.07 0.04 0.02 0.04 0.08 0.07 0.06 0.06 0.07 0.04 0.03 0.05 0.02 0.04 0.05 0.04 0.04 0.03 0.02 0.01 0.03 0.01 0.01 0.00 0.00 0.00 0.00
0.00 0.00 0.00 0.00 0.00 0.00 0.00 0.00 0.00 0.00 0.00 0.00 0.00 0.00 0.00 0.00 0.00 0.00 0.00 0.00 0.00 0.00 0.00 0.00 0.03 0.01 0.21 0.12 0.35 0.56 0.52 0.55 0.41 0.29 0.15 0.31 0.43 0.64 0.53 0.64 0.33 0.44 0.55 0.61 0.70 0.53 0.47 0.26 0.29 0.41 0.07 0.02 0.02 0.09 0.05 0.10 0.04 0.02 0.01 0.01 0.01 0.01 0.03 0.02 0.12 0.13 0.06 0.12 0.12 0.14 0.14 0.05 0.09 0.08 0.07 0.05 0.09 0.07 0.07 0.06 0.07 0.07 0.09 0.11 0.06 0.04 0.02 0.01 0.01 0.01 0.01 0.01 0.00 0.00 0.00 0.00 0.00
0.00 0.00 0.00 0.00 0.00 0.00 0.00 0.00 0.00 0.00 0.00 0.00 0.00 0.00 0.00 0.00 0.00 0.00 0.00 0.00 0.00 0.00 0.00 0.00 0.01 0.01 0.47 0.35 0.46 0.73 0.61 0.50 0.49 0.20 0.63 0.40 0.62 0.44 0.62 0.50 0.59 0.87 0.66 1.10 0.71 0.37 0.21 0.17 0.18 0.24 0.34 0.10 0.04 0.11 0.09 0.19 0.15 0.09 0.03 0.06 0.08 0.07 0.09 0.10 0.13 0.05 0.05 0.04 0.24 0.28 0.13 0.05 0.05 0.04 0.07 0.04 0.04 0.08 0.09 0.07 0.06 0.08 0.10 0.09 0.12 0.03 0.02 0.01 0.01 0.01 0.01 0.01 0.00 0.00 0.00 0.00 0.00
0.00 0.00 0.00 0.00 0.00 0.00 0.00 0.00 0.00 0.00 0.00 0.00 0.00 0.00 0.00 0.00 0.00 0.00 0.00 0.00 0.00 0.00 0.00 0.00 0.00 0.03 0.45 0.20 0.73 0.99 0.58 0.46 0.42 0.72 0.42 0.36 0.36 0.35 0.43 1.00 1.18 0.66 0.96 0.96 0.46 0.70 0.36 0.19 0.21 0.31 0.33 0.27 0.49 0.36 0.38 0.31 0.27 0.19 0.12 0.16 0.14 0.16 0.17 0.15 0.07 0.23 0.33 0.54 0.24 0.08 0.05 0.08 0.06 0.06 0.06 0.06 0.08 0.04 0.04 0.04 0.05 0.07 0.06 0.09 0.05 0.02 0.03 0.02 0.02 0.02 0.00 0.00 0.00 0.00 0.00 0.00 0.00
0.00 0.00 0.00 0.00 0.00 0.00 0.00 0.00 0.00 0.00 0.00 0.00 0.00 0.00 0.00 0.00 0.00 0.00 0.00 0.00 0.00 0.00 0.03 0.00 0.00 0.04 1.08 0.17 0.57 0.31 0.51 0.35 0.17 0.16 0.24 0.33 0.62 0.61 0.79 0.82 0.82 1.30 1.09 0.69 0.60 0.44 0.31 0.26 0.46 0.43 0.27 0.34 0.53 0.55 0.95 0.51 0.38 0.29 0.14 0.28 0.17 0.18 0.35 0.21 0.27 0.33 0.36 0.18 0.09 0.13 0.10 0.09 0.19 0.18 0.07 0.06 0.07 0.04 0.04 0.02 0.04 0.06 0.10 0.09 0.05 0.04 0.02 0.02 0.01 0.01 0.00 0.00 0.00 0.00 0.00 0.00 0.00
0.00 0.00 0.00 0.00 0.00 0.00 0.00 0.00 0.00 0.00 0.00 0.00 0.00 0.00 0.00 0.00 0.00 0.00 0.00 0.00 0.00 0.00 0.00 0.01 0.00 0.19 0.16 0.12 0.20 0.12 0.16 0.28 0.32 0.14 0.22 0.58 0.45 0.61 0.88 0.81 0.84 1.44 1.08 0.87 0.60 0.48 0.98 0.39 0.42 0.39 0.37 0.47 0.55 0.64 0.81 0.90 0.72 0.79 0.60 0.46 0.45 0.24 0.30 0.34 0.23 0.15 0.18 0.17 0.19 0.22 0.13 0.32 0.33 0.25 0.17 0.23 0.11 0.07 0.01 0.15 0.05 0.08 0.06 0.06 0.08 0.03 0.04 0.01 0.00 0.02 0.01 0.00 0.00 0.00 0.00 0.00 0.00
0.00 0.00 0.00 0.00 0.00 0.00 0.00 0.00 0.00 0.00 0.00 0.00 0.00 0.00 0.00 0.00 0.00 0.00 0.00 0.00 0.01 0.00 0.00 0.00 0.03 0.02 0.22 0.17 0.14 0.07 0.19 0.18 0.17 0.27 0.20 0.30 0.45 1.14 1.35 0.92 0.86 0.77 0.83 0.74 0.72 0.89 1.10 0.91 0.70 0.40 0.40 0.39 0.54 0.93 0.72 0.68 0.58 1.08 0.61 0.44 0.41 0.34 0.35 0.32 0.24 0.32 0.28 0.30 0.22 0.14 0.12 0.39 0.56 0.34 0.36 0.28 0.19 0.17 0.03 0.04 0.09 0.12 0.08 0.04 0.05 0.03 0.05 0.01 0.01 0.01 0.02 0.00 0.00 0.00 0.00 0.00 0.00
0.00 0.00 0.00 0.00 0.00 0.00 0.00 0.00 0.00 0.00 0.00 0.00 0.00 0.00 0.00 0.00 0.00 0.00 0.00 0.00 0.01 0.00 0.02 0.02 0.03 0.09 0.07 0.12 0.15 0.09 0.14 0.36 0.34 0.20 0.26 0.39 0.70 0.56 0.79 0.69 0.61 0.62 0.63 0.77 0.91 0.88 1.09 1.45 1.09 0.66 0.81 0.54 0.58 0.85 0.89 0.88 0.74 0.60 0.62 0.53 0.80 0.74 0.51 0.46 0.49 0.41 0.79 0.41 0.28 0.26 0.74 0.68 0.70 0.54 0.46 0.73 0.29 0.26 0.24 0.05 0.09 0.08 0.08 0.11 0.08 0.01 0.01 0.02 0.04 0.03 0.02 0.01 0.00 0.00 0.00 0.00 0.00
0.00 0.00 0.00 0.00 0.00 0.00 0.00 0.00 0.00 0.00 0.00 0.00 0.00 0.00 0.00 0.00 0.01 0.00 0.01 0.00 0.00 0.01 0.06 0.04 0.14 0.19 0.10 0.14 0.10 0.15 0.17 0.40 0.53 0.90 0.70 0.30 0.33 0.49 0.97 1.03 0.73 0.62 0.64 0.55 0.74 0.59 1.20 0.77 0.94 0.72 0.75 0.85 0.72 1.12 1.00 1.21 0.86 0.68 1.18 0.48 0.44 0.36 0.79 0.76 0.66 0.65 0.71 0.50 0.43 0.63 0.81 0.70 0.85 1.10 0.69 0.37 0.37 0.20 0.23 0.18 0.14 0.11 0.09 0.10 0.09 0.04 0.03 0.01 0.03 0.07 0.03 0.01 0.00 0.00 0.00 0.01 0.00
0.00 0.00 0.00 0.00 0.00 0.00 0.00 0.00 0.00 0.00 0.00 0.00 0.00 0.00 0.00 0.00 0.00 0.00 0.03 0.01 0.00 0.01 0.07 0.07 0.12 0.27 0.12 0.15 0.15 0.13 0.31 0.46 0.57 0.91 0.71 0.57 0.38 0.57 0.85 0.96 0.61 0.50 0.65 0.63 0.76 1.03 0.58 0.81 1.77 2.00 1.00 1.31 1.79 0.96 1.00 0.51 1.06 0.94 0.81 0.70 0.69 0.66 0.85 0.77 0.66 0.82 1.05 1.09 0.66 0.91 1.09 1.22 1.00 1.53 0.85 0.83 0.97 0.57 0.35 0.14 0.13 0.13 0.12 0.12 0.05 0.11 0.10 0.07 0.03 0.04 0.04 0.05 0.00 0.00 0.02 0.01 0.02
0.00 0.00 0.00 0.00 0.00 0.00 0.00 0.00 0.00 0.00 0.00 0.00 0.00 0.00 0.00 0.00 0.00 0.00 0.00 0.02 0.01 0.10 0.00 0.03 0.11 0.22 0.17 0.20 0.18 0.17 0.27 0.31 0.49 0.58 0.54 0.84 0.95 0.73 0.95 0.94 0.82 0.36 0.46 0.54 1.10 0.71 0.95 1.30 1.97 2.14 1.56 1.27 1.45 1.40 0.91 1.04 0.68 0.76 0.80 1.05 1.15 1.20 0.88 0.77 0.98 1.01 0.81 1.03 0.80 1.18 1.39 1.48 1.27 1.08 0.72 0.62 0.60 0.50 0.53 0.31 0.31 0.33 0.21 0.19 0.12 0.19 0.18 0.26 0.13 0.20 0.08 0.01 0.03 0.01 0.02 0.03 0.03
0.00 0.00 0.00 0.00 0.00 0.00 0.00 0.00 0.00 0.00 0.00 0.00 0.00 0.00 0.00 0.00 0.00 0.00 0.01 0.02 0.24 0.04 0.01 0.02 0.42 0.81 0.16 0.27 0.12 0.24 0.31 0.26 0.51 0.59 0.59 0.72 0.77 0.83 1.16 1.30 1.12 0.77 0.57 0.82 0.61 0.52 2.06 1.25 1.33 1.68 2.09 1.04 1.44 1.34 0.94 0.78 0.70 1.12 1.01 0.83 0.85 1.03 0.58 0.67 1.15 1.15 1.00 1.07 0.82 1.40 1.69 1.31 1.29 1.04 0.82 0.72 1.01 1.37 0.88 0.61 0.31 0.60 0.36 0.49 0.22 0.29 0.44 0.43 0.31 0.11 0.07 0.05 0.04 0.02 0.02 0.02 0.02
0.00 0.00 0.00 0.00 0.00 0.00 0.00 0.00 0.00 0.00 0.00 0.00 0.00 0.00 0.00 0.00 0.00 0.00 0.00 0.04 0.05 0.01 0.01 0.00 0.08 0.41 0.27 0.22 0.13 0.21 0.56 0.52 0.41 0.60 0.69 0.60 0.85 1.52 2.28 1.85 0.50 0.55 0.73 1.58 1.11 1.10 1.46 2.05 1.12 1.52 1.32 1.29 1.16 0.70 0.86 0.89 1.09 1.03 1.24 1.18 0.79 0.85 1.20 1.20 1.78 1.61 1.35 1.05 1.52 1.43 1.62 1.27 1.05 1.32 1.03 1.04 0.71 0.58 0.46 0.40 0.50 0.33 0.74 0.80 0.40 0.25 0.33 0.27 0.34 0.40 0.33 0.12 0.09 0.07 0.04 0.02 0.02
0.00 0.00 0.00 0.00 0.00 0.00 0.00 0.00 0.00 0.00 0.00 0.00 0.00 0.00 0.00 0.00 0.00 0.00 0.00 0.00 0.00 0.01 0.02 0.04 0.14 0.30 0.17 0.14 0.36 0.25 0.22 0.26 0.73 0.59 1.03 1.63 1.82 2.64 2.13 1.43 0.88 0.83 1.33 0.99 1.25 1.12 1.64 1.73 1.25 1.55 1.15 1.06 0.81 0.71 0.75 0.83 0.91 1.10 1.33 1.31 1.55 1.43 1.53 1.37 2.47 1.68 1.25 1.45 1.51 1.45 2.06 1.82 1.47 1.40 1.33 1.04 1.01 1.01 0.70 0.50 0.56 0.58 0.73 1.14 0.70 0.32 0.49 0.55 0.35 0.23 0.29 0.33 0.08 0.03 0.07 0.22 0.13
0.00 0.00 0.00 0.00 0.00 0.00 0.00 0.00 0.00 0.00 0.00 0.00 0.00 0.00 0.00 0.00 0.00 0.00 0.00 0.00 0.00 0.01 0.01 0.03 0.13 0.25 0.09 0.09 0.21 0.19 0.18 0.33 0.63 0.77 0.92 2.76 2.04 2.41 2.24 1.69 1.15 1.28 1.64 1.41 1.73 1.73 2.33 1.74 1.76 1.09 0.96 0.67 0.56 0.74 0.58 0.64 1.34 1.88 1.29 0.96 1.30 1.57 1.51 2.36 2.18 1.95 1.84 1.19 1.49 1.17 1.48 1.14 1.23 1.45 1.15 0.69 0.75 1.08 1.19 0.94 0.50 0.52 0.69 0.52 0.93 0.58 0.49 0.34 0.21 0.22 0.27 0.11 0.10 0.14 0.32 0.28 0.21
0.00 0.00 0.00 0.00 0.00 0.00 0.00 0.00 0.00 0.00 0.00 0.00 0.00 0.00 0.00 0.00 0.00 0.00 0.00 0.00 0.00 0.00 0.01 0.04 0.17 0.13 0.13 0.14 0.11 0.32 0.29 0.60 0.78 0.87 1.51 2.51 2.66 2.44 2.02 1.45 1.83 1.79 2.76 2.15 1.98 2.29 1.68 1.86 0.84 0.87 0.67 0.43 0.55 0.72 1.02 1.00 1.19 1.39 1.07 1.04 1.35 1.36 1.59 2.09 1.26 1.70 1.49 1.73 1.67 0.97 1.42 0.92 0.82 1.06 1.12 0.80 0.58 0.80 1.11 0.97 0.87 0.64 0.50 0.62 0.76 0.68 0.59 0.28 0.23 0.22 0.39 0.15 0.08 0.51 0.32 0.21 0.08
0.00 0.00 0.00 0.00 0.00 0.00 0.00 0.00 0.00 0.00 0.00 0.00 0.00 0.00 0.00 0.00 0.00 0.00 0.00 0.00 0.01 0.00 0.03 0.12 0.17 0.13 0.05 0.21 0.23 0.38 0.31 0.56 0.86 1.18 1.58 2.18 2.63 1.86 1.72 1.26 1.47 1.84 2.58 2.64 2.15 1.90 1.15 1.02 0.79 1.47 0.86 1.14 1.13 0.70 0.80 0.96 0.79 0.64 1.08 0.82 1.02 1.21 1.14 1.30 1.66 2.12 1.32 1.33 1.46 0.97 0.97 1.05 1.13 1.52 0.98 0.87 1.03 1.03 1.69 1.49 1.29 1.32 1.26 0.74 0.86 0.66 0.63 0.40 0.36 0.28 0.17 0.28 0.44 0.45 0.53 0.41 0.34
0.00 0.00 0.00 0.00 0.00 0.00 0.00 0.00 0.00 0.00 0.00 0.00 0.00 0.00 0.00 0.00 0.00 0.00 0.00 0.01 0.00 0.00 0.03 0.04 0.07 0.15 0.17 0.27 0.30 0.25 0.35 0.86 2.01 2.19 2.83 3.20 3.71 2.61 2.51 2.24 2.14 1.45 2.90 3.40 1.61 1.59 1.04 1.13 1.12 0.87 0.82 1.00 1.01 0.92 0.78 0.68 0.63 0.94 1.03 1.28 1.18 1.02 0.90 1.35 1.74 1.25 1.13 1.37 1.53 1.36 0.83 1.03 0.73 1.19 0.83 1.08 1.44 1.14 1.90 1.96 1.95 1.61 0.88 1.02 0.79 0.63 0.35 0.48 0.47 0.30 0.35 0.60 0.73 0.74 0.66 0.62 0.46
0.00 0.00 0.00 0.00 0.00 0.00 0.00 0.00 0.00 0.00 0.00 0.00 0.00 0.00 0.00 0.00 0.00 0.00 0.00 0.00 0.00 0.00 0.03 0.04 0.07 0.08 0.12 0.12 0.17 0.15 0.44 0.99 0.66 1.74 1.76 2.22 3.72 3.75 3.77 3.23 3.78 4.13 2.73 1.77 1.45 0.82 0.89 0.63 0.47 0.54 0.67 0.66 0.74 0.77 0.64 0.91 0.42 0.73 0.80 1.09 0.84 0.52 0.63 0.79 1.02 1.07 1.36 1.53 1.73 1.33 0.99 1.01 0.81 1.07 1.05 0.99 0.76 0.78 1.27 1.60 2.04 2.15 1.73 0.99 0.67 0.39 0.32 0.40 0.39 0.29 0.54 0.60 0.53 0.54 0.63 0.54 0.21
0.00 0.00 0.00 0.00 0.00 0.00 0.00 0.00 0.00 0.00 0.00 0.00 0.00 0.00 0.00 0.00 0.00 0.00 0.02 0.00 0.01 0.01 0.02 0.02 0.06 0.08 0.12 0.22 0.17 0.24 0.33 0.72 1.48 1.16 1.53 1.98 1.99 2.24 2.89 2.02 2.64 1.70 1.15 1.32 1.41 0.95 0.64 0.44 0.61 0.78 0.73 0.69 0.83 1.09 0.52 0.84 0.68 0.81 0.70 0.64 0.69 0.56 0.89 0.60 1.15 1.41 0.98 1.44 1.05 0.87 0.63 0.99 0.99 1.21 0.94 1.29 1.50 1.04 1.20 1.34 1.70 1.35 1.63 1.25 1.29 0.73 0.54 0.36 0.58 0.66 0.77 0.72 0.49 0.40 0.47 0.39 0.26
0.00 0.00 0.00 0.00 0.00 0.00 0.00 0.00 0.00 0.00 0.00 0.00 0.00 0.00 0.00 0.00 0.00 0.00 0.01 0.00 0.00 0.01 0.03 0.11 0.22 0.15 0.13 0.24 0.14 0.20 0.27 0.70 1.14 1.00 1.02 1.26 1.52 2.22 1.69 2.23 2.02 0.74 0.63 0.95 0.94 0.98 0.58 0.83 0.96 1.03 0.89 0.92 0.90 0.95 0.77 0.82 0.62 0.50 0.46 0.30 0.48 0.46 0.55 0.80 0.54 0.59 0.79 0.99 1.21 1.11 1.03 1.40 0.86 1.28 0.79 1.02 1.19 1.32 0.89 0.82 1.01 1.68 1.64 1.14 1.68 1.24 1.07 1.06 0.65 0.93 0.84 0.87 0.45 0.82 0.91 0.66 0.39
0.00 0.00 0.00 0.00 0.00 0.00 0.00 0.00 0.00 0.00 0.00 0.00 0.00 0.00 0.00 0.00 0.00 0.00 0.01 0.01 0.00 0.00 0.11 0.15 0.43 0.47 0.31 0.31 0.28 0.39 0.63 1.01 1.55 1.16 1.03 0.90 1.24 1.81 1.16 1.60 1.22 0.47 0.90 0.75 0.78 0.93 0.90 0.74 0.85 0.92 1.63 1.38 1.62 1.32 1.06 0.73 0.29 0.38 0.63 0.78 0.71 0.83 1.08 0.40 0.54 0.52 0.48 1.20 0.99 0.83 0.77 0.88 0.99 0.98 0.94 0.93 1.38 1.32 1.17 1.28 1.07 1.48 1.46 1.09 1.00 1.19 1.05 0.69 0.97 1.39 0.92 0.65 0.85 0.43 0.46 0.42 0.88
0.00 0.00 0.00 0.00 0.00 0.00 0.00 0.00 0.00 0.00 0.00 0.00 0.00 0.00 0.00 0.00 0.00 0.00 0.01 0.01 0.01 0.00 0.05 0.19 0.15 0.12 0.26 0.30 0.56 0.41 0.41 0.54 0.56 0.44 0.48 0.66 0.67 0.95 1.81 1.11 0.67 0.90 0.58 0.64 0.55 0.52 1.08 0.99 0.82 1.07 1.22 0.98 1.73 1.40 1.01 0.68 0.73 0.41 0.39 0.54 0.44 0.59 0.42 0.44 0.76 0.61 0.40 0.97 0.96 0.75 0.79 0.83 1.03 1.22 1.39 1.11 1.39 1.67 1.22 1.62 1.73 1.36 1.49 1.17 0.98 1.20 1.33 1.11 1.16 0.57 0.94 0.69 0.79 0.90 0.74 0.80 1.01
0.00 0.00 0.00 0.01 0.00 0.00 0.00 0.00 0.00 0.00 0.00 0.00 0.00 0.00 0.00 0.00 0.00 0.00 0.02 0.01 0.01 0.01 0.05 0.06 0.09 0.09 0.11 0.11 0.16 0.33 0.46 0.47 0.33 0.29 0.51 0.54 0.62 0.52 0.45 0.72 0.79 0.76 0.67 0.53 0.42 0.96 1.44 1.60 1.40 1.49 1.51 1.32 1.62 1.37 1.24 1.54 0.76 0.57 0.41 0.49 0.69 0.83 0.56 0.52 0.25 0.51 1.07 0.76 1.26 0.84 1.10 1.30 1.10 1.48 1.41 1.15 2.05 1.16 2.25 1.83 1.84 1.21 1.32 1.31 1.69 1.17 0.87 1.35 2.46 1.40 0.72 0.73 0.75 1.02 0.98 1.20 0.90
0.00 0.00 0.00 0.00 0.00 0.00 0.00 0.00 0.00 0.00 0.00 0.00 0.00 0.00 0.00 0.00 0.00 0.00 0.00 0.01 0.02 0.01 0.03 0.04 0.10 0.13 0.27 0.14 0.09 0.17 0.20 0.25 0.24 0.36 0.45 0.38 0.34 0.41 0.40 0.41 0.33 0.62 0.51 0.48 0.65 1.71 1.49 1.19 1.68 2.48 1.64 1.92 1.83 0.99 0.86 1.30 1.13 0.49 0.48 0.65 0.68 0.64 0.36 0.61 0.46 1.08 0.79 1.12 1.26 1.51 1.22 1.09 0.83 0.95 0.72 0.73 1.01 1.19 1.35 1.12 1.91 1.31 1.09 1.23 1.73 1.56 1.13 1.08 1.43 0.95 1.43 1.18 1.06 1.45 1.96 1.34 1.46
0.00 0.00 0.00 0.00 0.01 0.00 0.00 0.00 0.00 0.00 0.00 0.00 0.00 0.00 0.00 0.01 0.00 0.01 0.01 0.02 0.01 0.01 0.02 0.05 0.09 0.08 0.07 0.09 0.07 0.16 0.19 0.28 0.24 0.44 0.23 0.38 0.28 0.22 0.23 0.23 0.27 0.55 0.56 0.65 1.87 1.91 1.53 1.82 2.33 3.10 2.27 1.74 1.27 1.53 1.10 0.92 0.80 0.58 0.49 0.60 0.49 0.67 0.68 0.57 0.58 0.80 0.90 1.06 1.15 1.27 0.71 0.85 0.68 0.53 0.71 0.46 1.19 1.18 0.87 1.07 1.44 1.47 1.91 1.36 1.86 1.31 1.04 1.41 1.79 0.91 1.22 0.92 1.75 1.21 1.48 0.90 1.27
0.00 0.00 0.00 0.00 0.00 0.00 0.00 0.00 0.00 0.00 0.00 0.00 0.00 0.00 0.00 0.00 0.00 0.00 0.00 0.02 0.02 0.02 0.03 0.03 0.13 0.06 0.04 0.09 0.17 0.10 0.16 0.20 0.25 0.17 0.43 0.35 0.29 0.20 0.25 0.19 0.57 0.38 0.68 1.21 2.37 3.18 2.75 2.81 2.50 2.13 1.92 1.25 1.89 1.25 0.83 1.24 0.52 0.30 0.46 0.42 0.38 0.46 0.43 0.55 0.45 0.74 0.50 1.13 1.15 0.83 0.51 0.64 0.62 0.57 0.66 0.86 1.06 1.01 1.38 1.02 1.27 0.98 0.91 1.85 0.87 0.73 0.80 1.22 1.31 1.85 1.55 1.21 1.42 1.76 1.93 0.93 1.03
0.00 0.00 0.00 0.00 0.00 0.00 0.00 0.00 0.00 0.00 0.00 0.00 0.00 0.01 0.00 0.00 0.00 0.00 0.01 0.01 0.02 0.01 0.01 0.02 0.03 0.04 0.08 0.13 0.13 0.13 0.23 0.30 0.13 0.22 0.47 0.24 0.24 0.23 0.19 0.67 0.40 0.55 1.28 2.14 1.10 1.44 1.48 2.94 2.49 1.62 1.67 2.13 2.44 2.02 1.31 1.14 0.69 0.62 0.48 0.73 0.72 0.72 0.71 0.66 0.42 0.97 0.86 1.04 0.95 0.94 0.54 0.43 0.56 0.68 0.76 1.08 1.16 0.89 1.02 0.83 0.68 1.27 0.98 1.14 0.84 1.02 1.09 1.16 1.92 2.13 1.42 1.69 1.13 0.71 1.46 1.51 1.56
0.00 0.00 0.00 0.00 0.01 0.00 0.00 0.00 0.00 0.00 0.00 0.00 0.00 0.01 0.00 0.00 0.00 0.01 0.00 0.01 0.01 0.01 0.01 0.01 0.01 0.03 0.03 0.13 0.68 0.56 0.58 0.25 0.16 0.29 0.42 0.47 0.21 0.27 0.33 0.33 0.36 0.66 1.53 1.02 0.94 1.07 1.46 1.97 1.38 2.13 3.46 4.52 4.15 2.78 2.40 1.26 1.60 1.06 0.86 0.70 0.77 0.75 0.58 1.01 0.50 1.26 1.30 1.27 1.08 0.77 0.97 0.63 0.72 0.96 1.07 1.26 0.98 0.96 0.94 1.14 0.89 0.72 0.49 0.69 1.06 0.69 0.65 0.66 1.02 1.47 0.99 1.03 1.27 1.09 1.30 1.85 1.94
0.00 0.00 0.00 0.00 0.00 0.00 0.03 0.00 0.00 0.00 0.00 0.00 0.00 0.03 0.01 0.00 0.00 0.00 0.01 0.01 0.06 0.02 0.01 0.01 0.01 0.14 0.14 0.26 0.41 0.26 0.22 0.24 0.28 0.34 0.36 0.26 0.19 0.22 0.17 0.44 0.63 0.77 0.82 1.25 0.88 1.74 1.73 2.53 2.96 3.78 3.33 2.86 1.98 1.75 1.70 1.56 0.89 1.34 1.87 1.69 0.98 1.18 1.21 0.79 0.82 1.20 0.77 0.91 0.67 0.87 1.18 0.94 0.80 0.77 1.16 0.50 0.63 0.70 0.95 0.78 0.74 0.78 0.57 0.54 0.68 0.74 0.63 1.69 1.31 1.37 1.14 1.67 1.01 1.60 0.77 1.73 1.06
0.00 0.00 0.00 0.00 0.00 0.00 0.00 0.06 0.00 0.00 0.00 0.00 0.00 0.02 0.01 0.00 0.00 0.00 0.00 0.00 0.01 0.01 0.02 0.01 0.01 0.03 0.04 0.07 0.22 0.21 0.24 0.19 0.35 0.27 0.32 0.25 0.19 0.19 0.61 0.45 0.69 0.74 0.91 1.00 1.01 1.35 1.20 1.99 2.05 1.62 1.18 1.32 1.51 1.60 1.66 1.64 1.26 1.18 1.92 1.05 1.06 0.90 0.66 0.77 0.56 0.67 0.72 0.81 0.84 0.59 0.87 0.65 0.63 0.76 0.81 0.80 0.51 0.72 0.61 0.75 0.64 0.48 0.56 0.50 0.61 0.74 0.78 0.32 0.45 0.75 0.66 0.89 0.88 0.73 1.12 1.07 1.52
0.00 0.00 0.00 0.00 0.00 0.00 0.00 0.00 0.00 0.00 0.02 0.00 0.01 0.02 0.05 0.01 0.00 0.01 0.00 0.00 0.01 0.01 0.02 0.01 0.02 0.07 0.05 0.08 0.23 0.33 0.28 0.28 0.33 0.27 0.26 0.19 0.20 0.39 0.41 0.51 0.73 0.62 0.73 1.12 1.31 1.30 2.03 1.72 0.83 0.78 1.26 1.19 1.39 1.29 0.83 0.77 0.79 1.11 1.26 0.68 0.99 0.64 0.59 0.70 0.40 0.45 0.49 0.67 0.75 0.78 0.94 0.83 0.68 0.58 0.48 0.66 0.58 0.31 0.51 0.48 0.63 0.87 0.67 0.65 0.63 0.94 0.79 1.02 0.60 0.41 0.66 0.99 1.21 1.05 1.23 1.00 1.31
0.00 0.03 0.00 0.00 0.00 0.00 0.00 0.00 0.00 0.00 0.02 0.04 0.00 0.01 0.04 0.01 0.01 0.00 0.00 0.00 0.01 0.01 0.02 0.03 0.05 0.05 0.06 0.14 0.29 0.25 0.24 0.27 0.30 0.37 0.22 0.22 0.47 0.94 0.67 0.51 0.78 0.98 1.05 1.02 1.19 1.18 1.03 1.17 1.15 1.07 1.01 1.09 1.35 1.33 0.62 0.59 0.98 1.22 1.14 1.05 1.05 0.59 0.67 0.62 0.64 0.69 0.51 1.08 0.59 0.43 0.32 0.61 0.59 0.59 0.59 0.58 0.39 0.43 0.46 0.69 0.54 0.44 0.59 0.70 0.37 1.04 0.88 0.74 0.68 0.85 0.92 0.93 0.99 0.82 0.74 1.46 0.98
0.02 0.01 0.00 0.00 0.01 0.00 0.00 0.00 0.00 0.01 0.00 0.01 0.00 0.01 0.06 0.06 0.06 0.00 0.00 0.01 0.02 0.03 0.03 0.06 0.07 0.12 0.10 0.19 0.21 0.18 0.20 0.25 0.27 0.16 0.25 1.21 1.85 1.40 0.97 0.73 0.77 1.01 1.20 1.51 1.17 1.05 1.76 2.14 2.07 1.79 1.25 0.67 0.98 0.69 0.72 0.69 0.85 0.72 1.17 0.66 0.81 0.95 0.49 0.82 0.66 0.61 0.68 1.15 0.80 0.54 0.51 0.57 0.63 0.65 0.68 0.25 0.13 0.22 0.36 0.41 0.35 0.44 0.48 0.52 0.53 0.72 0.64 0.80 1.09 0.93 0.92 0.56 0.67 0.69 0.59 0.83 0.79
0.01 0.00 0.00 0.00 0.00 0.02 0.00 0.00 0.01 0.05 0.01 0.04 0.00 0.01 0.03 0.08 0.10 0.01 0.00 0.02 0.04 0.08 0.06 0.12 0.13 0.12 0.27 0.27 0.21 0.14 0.14 0.13 0.18 0.18 1.18 0.90 1.47 1.09 0.74 1.33 1.35 1.23 1.57 0.81 1.38 2.10 2.65 1.47 2.31 1.97 2.20 3.18 2.07 0.65 0.71 0.91 0.53 0.59 0.90 0.77 0.56 0.58 0.43 0.33 0.42 0.60 0.75 1.40 1.28 0.72 0.61 0.98 0.71 0.36 0.56 0.48 0.42 0.30 0.17 0.35 0.25 0.33 0.52 0.93 0.49 0.59 0.50 0.41 0.74 0.91 1.20 0.84 0.75 0.46 0.28 0.41 0.75
0.00 0.00 0.00 0.00 0.00 0.00 0.00 0.02 0.00 0.09 0.00 0.04 0.05 0.10 0.02 0.12 0.09 0.09 0.02 0.04 0.14 0.13 0.17 0.16 0.14 0.16 0.21 0.14 0.15 0.14 0.16 0.27 0.32 0.25 0.22 0.84 0.90 1.06 1.71 2.10 2.51 2.08 1.93 2.17 2.86 2.43 1.94 1.38 1.48 2.55 2.32 2.60 2.03 1.36 1.52 0.78 0.73 0.72 0.61 0.87 0.34 0.89 0.50 0.47 0.49 0.78 0.41 1.42 0.54 0.51 0.70 0.52 0.69 0.47 0.37 0.24 0.27 0.28 0.31 0.30 0.16 0.22 0.28 0.33 0.30 0.61 0.60 0.39 0.54 0.63 0.80 0.88 0.84 0.54 0.37 0.40 0.63
0.00 0.00 0.00 0.00 0.00 0.03 0.01 0.00 0.05 0.05 0.03 0.03 0.03 0.02 0.01 0.18 0.15 0.07 0.07 0.13 0.06 0.18 0.13 0.17 0.11 0.10 0.15 0.14 0.14 0.17 0.23 0.33 0.89 0.67 0.66 0.87 0.83 1.10 1.69 1.75 1.75 2.71 4.01 4.28 3.23 2.86 3.33 3.74 2.07 1.98 1.37 1.44 1.75 1.40 0.92 1.50 0.84 0.29 0.41 0.38 0.29 0.42 0.42 0.28 0.39 1.29 1.05 0.79 0.70 0.79 0.74 0.52 0.40 0.55 0.57 0.31 0.35 0.34 0.29 0.20 0.33 0.35 0.96 0.66 0.42 0.30 0.55 0.73 0.78 1.24 0.98 0.87 0.54 0.63 0.73 0.50 0.43
0.00 0.00 0.02 0.00 0.02 0.00 0.01 0.05 0.04 0.09 0.01 0.03 0.02 0.01 0.02 0.14 0.22 0.16 0.14 0.06 0.10 0.09 0.15 0.15 0.18 0.18 0.14 0.18 0.18 0.14 0.21 0.46 0.65 0.74 0.70 0.78 1.17 0.87 0.80 1.69 1.45 2.38 2.84 2.68 1.88 1.58 1.53 1.43 1.43 2.14 1.80 2.44 2.50 1.69 1.36 0.79 0.46 0.60 0.57 0.50 0.42 0.28 0.33 0.62 0.19 0.46 0.63 0.77 0.52 0.47 0.69 0.62 0.52 0.28 0.27 0.38 0.29 0.15 0.31 0.22 0.28 0.30 0.34 0.84 0.80 0.78 0.43 0.57 0.42 0.55 0.62 0.78 0.63 0.47 0.67 0.53 0.41
0.00 0.00 0.02 0.21 0.19 0.02 0.10 0.05 0.03 0.00 0.03 0.08 0.00 0.01 0.02 0.02 0.20 0.40 0.19 0.09 0.12 0.11 0.11 0.12 0.10 0.12 0.12 0.15 0.18 0.18 0.16 0.19 0.50 0.55 0.33 0.36 1.02 0.87 0.62 1.33 2.11 1.90 2.89 2.84 2.18 1.60 1.22 0.94 1.23 0.59 1.37 2.08 1.09 0.86 1.29 1.28 0.60 0.30 0.41 0.49 0.43 0.66 0.58 0.34 0.77 0.73 0.51 0.41 0.56 0.53 0.37 0.32 0.40 0.39 0.28 0.21 0.26 0.32 0.24 0.22 0.26 0.29 0.65 0.75 0.68 0.43 0.27 0.64 0.79 0.70 0.45 0.69 0.77 0.47 0.58 0.51 0.39
0.00 0.03 0.08 0.08 0.17 0.07 0.02 0.07 0.02 0.06 0.02 0.02 0.05 0.02 0.05 0.22 0.21 0.25 0.44 0.19 0.15 0.10 0.08 0.09 0.11 0.11 0.10 0.13 0.14 0.19 0.23 0.26 0.36 0.86 1.18 0.57 0.59 0.98 1.02 0.79 0.90 1.00 1.47 1.48 1.78 1.04 0.97 1.61 1.81 1.80 1.41 1.37 1.17 1.54 1.10 0.80 0.49 0.22 0.34 0.65 0.43 0.59 0.31 0.37 0.37 0.26 0.46 0.47 0.37 0.34 0.40 0.26 0.31 0.23 0.20 0.19 0.16 0.17 0.31 0.13 0.24 0.28 0.55 0.27 0.62 0.49 0.51 0.43 0.44 0.77 0.58 0.55 0.77 0.46 0.55 0.84 0.44
0.01 0.00 0.00 0.08 0.11 0.07 0.02 0.05 0.05 0.03 0.18 0.07 0.05 0.01 0.09 0.15 0.67 0.39 0.47 0.28 0.12 0.07 0.08 0.08 0.11 0.14 0.17 0.16 0.18 0.53 0.93 1.54 1.16 0.56 0.29 0.47 0.90 0.51 0.48 0.72 0.73 0.82 1.71 2.56 1.23 0.94 1.34 1.71 2.18 1.83 1.39 1.45 1.46 1.20 1.21 0.76 0.64 0.55 0.90 0.83 0.52 0.16 0.32 0.22 0.20 0.26 0.19 0.42 0.38 0.33 0.50 0.34 0.16 0.27 0.14 0.21 0.50 0.30 0.15 0.13 0.18 0.34 0.63 0.63 0.56 0.41 0.43 0.46 0.50 0.72 0.93 1.03 0.72 0.60 0.48 0.45 0.59
0.01 0.00 0.00 0.03 0.02 0.00 0.10 0.24 0.03 0.14 0.08 0.06 0.05 0.06 0.34 0.92 0.82 0.56 0.27 0.18 0.05 0.05 0.07 0.19 0.13 0.14 0.19 0.16 0.34 0.28 0.25 0.47 1.23 1.09 0.99 1.19 1.20 0.78 0.65 0.53 0.73 0.85 2.01 2.28 1.79 1.47 1.16 1.53 1.27 2.00 3.00 2.13 1.63 1.49 1.42 0.88 0.86 1.07 1.09 0.82 0.49 0.20 0.55 0.19 0.23 0.19 0.26 0.23 0.40 0.62 0.25 0.36 0.17 0.11 0.35 0.33 0.27 0.14 0.14 0.19 0.29 0.20 0.39 0.42 0.37 0.35 0.29 0.44 0.78 0.68 0.65 0.58 0.57 0.60 0.73 0.36 0.57
0.18 0.00 0.05 0.02 0.01 0.02 0.04 0.00 0.00 0.00 0.00 0.04 0.01 0.12 0.31 0.28 1.24 0.51 0.61 0.24 0.16 0.12 0.13 0.13 0.24 0.16 0.26 0.32 0.30 0.50 0.90 1.16 1.15 1.22 0.71 1.11 1.05 0.63 0.30 0.31 0.38 1.45 1.78 2.08 1.81 1.23 1.50 1.05 0.79 1.26 2.18 1.06 1.63 1.34 1.33 0.97 0.98 0.67 0.68 0.36 0.17 0.42 0.23 0.18 0.11 0.22 0.48 0.51 0.63 0.48 0.35 0.30 0.27 0.19 0.12 0.13 0.19 0.20 0.23 0.29 0.38 0.48 0.41 0.44 0.43 0.36 0.39 0.54 0.77 0.89 0.55 0.61 0.62 0.69 0.74 0.46 0.68
0.00 0.02 0.03 0.00 0.00 0.02 0.02 0.12 0.04 0.01 0.02 0.13 0.03 0.09 0.49 0.09 1.04 0.89 0.65 0.24 0.25 0.22 0.26 0.15 0.36 0.57 0.57 0.52 0.56 0.75 1.20 0.91 0.88 0.87 0.71 0.55 0.57 0.46 0.59 0.51 0.44 0.50 0.86 1.54 0.79 0.76 1.38 0.98 1.04 2.81 2.52 1.94 1.22 0.94 1.31 1.34 0.58 0.24 0.17 0.22 0.24 0.19 0.14 0.13 0.15 0.50 0.66 0.77 0.53 0.55 0.58 0.59 0.23 0.37 0.45 0.31 0.19 0.17 0.20 0.20 0.39 0.39 0.45 0.39 0.36 0.38 0.30 0.67 0.66 0.62 0.53 0.55 0.43 0.57 0.78 0.60 0.61
0.00 0.07 0.00 0.02 0.06 0.05 0.03 0.00 0.03 0.02 0.01 0.09 0.08 0.12 0.10 0.15 0.51 0.29 0.63 0.25 0.34 0.26 0.26 0.28 0.22 0.29 0.41 0.75 0.88 0.99 1.75 1.47 1.18 1.00 0.77 0.73 0.65 0.94 0.96 0.88 0.60 0.90 0.85 0.66 0.74 0.42 0.28 0.44 3.16 3.28 3.19 1.37 1.55 1.22 0.98 0.94 0.48 0.20 0.18 0.19 0.28 0.25 0.14 0.21 0.77 0.91 1.05 0.57 0.42 0.37 0.21 0.24 0.30 0.39 0.37 0.30 0.26 0.29 0.24 0.16 0.19 0.36 0.66 0.42 0.90 0.70 0.51 0.81 1.06 0.69 0.61 0.58 0.55 0.64 0.66 0.51 0.59
0.00 0.00 0.00 0.00 0.00 0.05 0.08 0.02 0.15 0.01 0.18 0.04 0.20 0.10 0.26 0.15 0.42 0.21 0.33 0.22 0.31 0.27 0.34 0.34 0.37 0.35 0.54 1.21 0.87 0.83 1.21 1.35 1.11 0.68 1.03 0.87 1.35 1.23 1.02 0.67 1.10 1.31 0.66 0.74 0.60 0.36 0.53 0.69 1.41 1.89 0.98 0.90 0.61 0.85 1.31 1.05 0.44 0.59 0.19 0.11 0.10 0.30 0.30 0.40 0.54 0.77 0.90 0.53 0.48 0.24 0.22 0.18 0.10 0.28 0.13 0.18 0.12 0.12 0.16 0.13 0.29 0.31 0.59 0.70 0.71 0.81 0.78 0.76 0.56 0.36 0.38 0.41 0.53 0.51 0.55 0.47 0.45
0.00 0.00 0.00 0.01 0.01 0.03 0.01 0.10 0.02 0.17 0.13 0.09 0.12 0.15 0.48 0.48 0.18 0.14 0.26 0.29 0.36 0.55 0.66 0.75 0.67 0.77 0.88 1.06 1.40 1.28 1.40 1.22 1.05 0.56 0.79 0.81 0.41 0.45 0.59 0.61 1.13 0.85 0.94 1.14 1.18 0.62 0.62 0.79 0.98 1.20 0.75 0.58 0.73 1.23 1.15 0.74 0.67 0.66 0.21 0.10 0.11 0.10 0.14 0.36 0.39 0.63 0.56 0.34 0.33 0.39 0.51 0.36 0.34 0.36 0.19 0.17 0.17 0.11 0.07 0.19 0.22 0.43 0.56 0.96 0.89 0.81 0.62 0.46 0.37 0.13 0.19 0.64 0.72 0.79 0.53 0.56 0.50
0.00 0.01 0.05 0.05 0.09 0.16 0.10 0.10 0.00 0.08 0.04 0.11 0.10 0.19 0.54 0.29 0.22 0.32 0.36 0.50 0.50 0.57 0.60 0.80 0.98 1.11 0.97 1.45 1.33 1.42 1.56 1.14 0.92 0.74 0.59 0.92 0.75 0.51 1.01 0.84 0.60 0.66 0.85 1.60 1.07 1.20 1.47 0.85 1.33 0.66 0.97 0.67 0.59 0.69 0.55 0.45 0.85 0.83 0.79 0.96 0.67 0.32 0.31 0.48 0.32 0.36 0.35 0.40 0.35 0.27 0.19 0.17 0.17 0.19 0.30 0.25 0.37 0.26 0.90 0.11 0.21 0.89 1.60 0.65 1.02 0.52 0.33 0.66 0.46 0.53 0.39 0.43 0.87 0.90 0.72 0.56 0.36